SCOUT A DEB, 2889

Orbit data source: Space-Track

SCOUT A DEB, 2889 is space debris in LEO originally from a launch on Fri, 28 Jan 1966 UTC launched from the Air Force Western Test Range (AFWTR). Debris objects in space refer to the collection of defunct objects orbiting the Earth. Examples of debris include non-operational satellites, rocket bodies, and fragments generated from explosions, collisions, or faulty payload assembly.

Loading next visibility...
Identifier
2889, 1966-005E
Orbit
LEO
Country
Flag of USUS
Related business
Manufacturer
Unknown
Mission
Spacecraft
Bus & Motor
Unknown
Mass
Unknown
Launch date (UTC)
1966-01-28 (60 years ago)
Launch vehicle
Unknown
Launch site
Air Force Western Test Range (AFWTR)
Object type
Payload
Rocket body
Debris
Shape & HBR
Unknown shape, 0.1 m
Radar Cross Section
Small (<0.1 m²)

Expand to show TLE details & history
Last TLE update: 2 days ago

TLE from 2 days ago
0 SCOUT A DEB
1  2889U 66005E   26036.61732701  .00000064  00000-0  12598-3 0  9996
2  2889  89.5465 163.7217 0167695 157.2247 264.6783 13.17994586819068
Epoch: 2026-02-05T14:48Z
TLE epoch observation values (Epoch: 2026-02-05T14:48:57.053Z)
Latitude
60.07858°
Longitude
166.50104°
Altitude
1,216.564 km
Speed
7.245 km/s
True Right ascension
10h 58m 01s
True Declination
59° 56' 19"
Sunlit
Object was in full shadow at epoch
Visualization orbit readout
Latitude
Unknown
Longitude
Unknown
Altitude
Unknown
Speed
Unknown
Apparent Right ascension
Unknown
Apparent Declination
Unknown
Sunlit
N/A
Visualization observer readout
Local Sidereal Time
17:53:53
Azimuth
Unknown
Elevation
Unknown
Doppler factor
Unknown
Orbital elements
Apogee altitude
1,316.391 km
Perigee altitude
1,062.58 km
Semi-major axis
7,567.623 km
Eccentricity
0.01677
Inclination
89.5465°
RAAN
163.7217°
Arg. of periapsis
157.2247°
True anomaly
262.76901°
Mean anomaly
264.6783°
Eccentric anomaly
263.72324°
Mean motion
3.29689 °/min
Orbital period
109.19 mins
BSTAR
0.00012598
Loading maneuver chart data...
Computing Atmospheric mass density...
Loading historical data...
Loading historical data...
Loading historical data...
Loading historical data...
Loading historical data...
Loading historical data...
Loading historical data...

Documentation

Showing up to 5 results
|